Time,TemperatureF,DewpointF,PressureIn,WindDirection,WindDirectionDegrees,WindSpeedMPH,WindSpeedGustMPH,Humidity,HourlyPrecipIn,Conditions,Clouds,dailyrainin,SoftwareType,DateUTC
2013-02-11 00:01:00,15.0,11.0,-100.00,WSW,257,3.0,6.0,82,-99.99,,,-99.99,,2013-02-11 07:01:00,
2013-02-11 00:11:00,15.0,11.0,-100.00,West,275,3.0,6.0,82,-99.99,,,-99.99,,2013-02-11 07:11:00,
2013-02-11 00:21:00,15.0,11.0,-100.00,West,275,3.0,6.0,82,-99.99,,,-99.99,,2013-02-11 07:21:00,
2013-02-11 00:31:00,15.0,11.0,-100.00,West,275,3.0,6.0,82,-99.99,,,-99.99,,2013-02-11 07:31:00,
2013-02-11 00:41:00,16.0,12.0,-100.00,WSW,244,2.0,3.0,83,-99.99,,,-99.99,,2013-02-11 07:41:00,
2013-02-11 00:52:00,16.0,12.0,-100.00,WSW,244,2.0,3.0,83,-99.99,,,-99.99,,2013-02-11 07:52:00,
2013-02-11 01:01:00,16.0,12.0,-100.00,SW,232,1.0,3.0,84,-99.99,,,-99.99,,2013-02-11 08:01:00,
2013-02-11 01:11:00,15.0,11.0,-100.00,SW,214,1.0,3.0,84,-99.99,,,-99.99,,2013-02-11 08:11:00,
2013-02-11 01:21:00,15.0,11.0,-100.00,SW,214,1.0,3.0,84,-99.99,,,-99.99,,2013-02-11 08:21:00,
2013-02-11 01:31:00,15.0,11.0,-100.00,SW,214,1.0,3.0,84,-99.99,,,-99.99,,2013-02-11 08:31:00,
2013-02-11 01:42:00,13.0,9.0,-100.00,WSW,239,2.0,5.0,84,-99.99,,,-99.99,,2013-02-11 08:42:00,
2013-02-11 01:52:00,13.0,9.0,-100.00,WSW,239,2.0,5.0,84,-99.99,,,-99.99,,2013-02-11 08:52:00,
2013-02-11 02:01:00,13.0,9.0,-100.00,SW,230,2.0,6.0,84,-99.99,,,-99.99,,2013-02-11 09:01:00,
2013-02-11 02:12:00,11.0,7.0,-100.00,WSW,246,4.0,7.0,83,-99.99,,,-99.99,,2013-02-11 09:12:00,
2013-02-11 02:21:00,11.0,7.0,-100.00,WSW,246,4.0,7.0,83,-99.99,,,-99.99,,2013-02-11 09:21:00,
2013-02-11 02:31:00,11.0,7.0,-100.00,WSW,246,4.0,7.0,83,-99.99,,,-99.99,,2013-02-11 09:31:00,
2013-02-11 02:41:00,11.0,7.0,-100.00,WSW,255,5.0,8.0,83,-99.99,,,-99.99,,2013-02-11 09:41:00,
2013-02-11 02:52:00,11.0,7.0,-100.00,WSW,255,5.0,8.0,83,-99.99,,,-99.99,,2013-02-11 09:52:00,
2013-02-11 03:01:00,11.0,7.0,-100.00,WSW,255,4.0,8.0,84,-99.99,,,-99.99,,2013-02-11 10:01:00,
2013-02-11 03:11:00,12.0,8.0,-100.00,SSW,195,3.0,8.0,84,-99.99,,,-99.99,,2013-02-11 10:11:00,
2013-02-11 03:21:00,12.0,8.0,-100.00,SSW,195,3.0,8.0,84,-99.99,,,-99.99,,2013-02-11 10:21:00,
2013-02-11 03:31:00,12.0,8.0,-100.00,SSW,195,3.0,8.0,84,-99.99,,,-99.99,,2013-02-11 10:31:00,
2013-02-11 03:41:00,10.0,6.0,-100.00,WSW,246,3.0,4.0,83,-99.99,,,-99.99,,2013-02-11 10:41:00,
2013-02-11 03:52:00,10.0,6.0,-100.00,WSW,246,3.0,4.0,83,-99.99,,,-99.99,,2013-02-11 10:52:00,
2013-02-11 04:01:00,9.0,5.0,-100.00,WSW,246,3.0,6.0,84,-99.99,,,-99.99,,2013-02-11 11:01:00,
2013-02-11 04:11:00,9.0,6.0,-100.00,WSW,254,4.0,6.0,84,-99.99,,,-99.99,,2013-02-11 11:11:00,
2013-02-11 04:22:00,9.0,6.0,-100.00,WSW,254,4.0,6.0,84,-99.99,,,-99.99,,2013-02-11 11:22:00,
2013-02-11 04:32:00,9.0,6.0,-100.00,WSW,254,4.0,6.0,84,-99.99,,,-99.99,,2013-02-11 11:32:00,
2013-02-11 04:42:00,9.0,5.0,-100.00,WSW,257,4.0,6.0,84,-99.99,,,-99.99,,2013-02-11 11:42:00,
2013-02-11 04:52:00,9.0,5.0,-100.00,WSW,257,4.0,6.0,84,-99.99,,,-99.99,,2013-02-11 11:52:00,
2013-02-11 05:02:00,9.0,5.0,-100.00,WSW,253,5.0,6.0,84,-99.99,,,-99.99,,2013-02-11 12:02:00,
2013-02-11 05:12:00,9.0,5.0,-100.00,WSW,250,5.0,7.0,84,-99.99,,,-99.99,,2013-02-11 12:12:00,
2013-02-11 05:22:00,9.0,5.0,-100.00,WSW,250,5.0,7.0,84,-99.99,,,-99.99,,2013-02-11 12:22:00,
2013-02-11 05:31:00,9.0,5.0,-100.00,WSW,250,5.0,7.0,84,-99.99,,,-99.99,,2013-02-11 12:31:00,
2013-02-11 05:42:00,9.0,5.0,-100.00,East,80,1.0,4.0,85,-99.99,,,-99.99,,2013-02-11 12:42:00,
2013-02-11 05:52:00,9.0,5.0,-100.00,East,80,1.0,4.0,85,-99.99,,,-99.99,,2013-02-11 12:52:00,
2013-02-11 06:01:00,8.0,4.0,-100.00,SW,233,2.0,4.0,83,-99.99,,,-99.99,,2013-02-11 13:01:00,
2013-02-11 06:11:00,7.0,3.0,-100.00,WSW,252,3.0,5.0,83,-99.99,,,-99.99,,2013-02-11 13:11:00,
2013-02-11 06:21:00,7.0,3.0,-100.00,WSW,252,3.0,5.0,83,-99.99,,,-99.99,,2013-02-11 13:21:00,
2013-02-11 06:32:00,7.0,3.0,-100.00,WSW,252,3.0,5.0,83,-99.99,,,-99.99,,2013-02-11 13:32:00,
2013-02-11 06:41:00,5.0,1.0,-100.00,WSW,239,2.0,4.0,82,-99.99,,,-99.99,,2013-02-11 13:41:00,
2013-02-11 06:52:00,5.0,1.0,-100.00,WSW,239,2.0,4.0,82,-99.99,,,-99.99,,2013-02-11 13:52:00,
2013-02-11 07:01:00,5.0,1.0,-100.00,WSW,239,2.0,4.0,82,-99.99,,,-99.99,,2013-02-11 14:01:00,
2013-02-11 07:11:00,3.0,-1.0,-100.00,WSW,251,3.0,5.0,81,-99.99,,,-99.99,,2013-02-11 14:11:00,
2013-02-11 07:21:00,3.0,-1.0,-100.00,WSW,251,3.0,5.0,81,-99.99,,,-99.99,,2013-02-11 14:21:00,
2013-02-11 07:32:00,3.0,-1.0,-100.00,WSW,251,3.0,5.0,81,-99.99,,,-99.99,,2013-02-11 14:32:00,
2013-02-11 07:42:00,3.0,-1.0,-100.00,WSW,244,2.0,4.0,83,-99.99,,,-99.99,,2013-02-11 14:42:00,
2013-02-11 07:53:00,3.0,-1.0,-100.00,WSW,244,2.0,4.0,83,-99.99,,,-99.99,,2013-02-11 14:53:00,
2013-02-11 08:01:00,4.0,1.0,-100.00,WSW,243,2.0,3.0,83,-99.99,,,-99.99,,2013-02-11 15:01:00,
2013-02-11 08:11:00,7.0,3.0,-100.00,SSE,157,0.0,2.0,84,-99.99,,,-99.99,,2013-02-11 15:11:00,
2013-02-11 08:22:00,7.0,3.0,-100.00,SSE,157,0.0,2.0,84,-99.99,,,-99.99,,2013-02-11 15:22:00,
2013-02-11 08:31:00,7.0,3.0,-100.00,SSE,157,0.0,2.0,84,-99.99,,,-99.99,,2013-02-11 15:31:00,
2013-02-11 08:42:00,10.0,6.0,-100.00,SSW,197,1.0,2.0,83,-99.99,,,-99.99,,2013-02-11 15:42:00,
2013-02-11 08:52:00,10.0,6.0,-100.00,SSW,197,1.0,2.0,83,-99.99,,,-99.99,,2013-02-11 15:52:00,
2013-02-11 09:01:00,10.0,6.0,-100.00,SSE,148,1.0,2.0,80,-99.99,,,-99.99,,2013-02-11 16:01:00,
2013-02-11 09:11:00,11.0,5.0,-100.00,NE,56,1.0,3.0,78,-99.99,,,-99.99,,2013-02-11 16:11:00,
2013-02-11 09:21:00,11.0,5.0,-100.00,NE,56,1.0,3.0,78,-99.99,,,-99.99,,2013-02-11 16:21:00,
2013-02-11 09:31:00,11.0,5.0,-100.00,NE,56,1.0,3.0,78,-99.99,,,-99.99,,2013-02-11 16:31:00,
2013-02-11 09:42:00,12.0,7.0,-100.00,ENE,59,1.0,5.0,78,-99.99,,,-99.99,,2013-02-11 16:42:00,
2013-02-11 09:52:00,12.0,7.0,-100.00,ENE,59,1.0,5.0,78,-99.99,,,-99.99,,2013-02-11 16:52:00,
2013-02-11 10:01:00,11.0,6.0,-100.00,ENE,63,3.0,5.0,79,-99.99,,,-99.99,,2013-02-11 17:01:00,
2013-02-11 10:11:00,14.0,7.0,-100.00,ENE,73,1.0,2.0,74,-99.99,,,-99.99,,2013-02-11 17:11:00,
2013-02-11 10:21:00,14.0,7.0,-100.00,ENE,73,1.0,2.0,74,-99.99,,,-99.99,,2013-02-11 17:21:00,
2013-02-11 10:31:00,14.0,7.0,-100.00,ENE,73,1.0,2.0,74,-99.99,,,-99.99,,2013-02-11 17:31:00,
2013-02-11 10:41:00,18.0,9.0,-100.00,East,99,2.0,3.0,67,-99.99,,,-99.99,,2013-02-11 17:41:00,
2013-02-11 10:53:00,18.0,9.0,-100.00,East,99,2.0,3.0,67,-99.99,,,-99.99,,2013-02-11 17:53:00,
2013-02-11 11:01:00,19.0,9.0,-100.00,ESE,103,3.0,4.0,65,-99.99,,,-99.99,,2013-02-11 18:01:00,
2013-02-11 11:11:00,20.0,11.0,-100.00,ESE,118,4.0,6.0,66,-99.99,,,-99.99,,2013-02-11 18:11:00,
2013-02-11 11:21:00,20.0,11.0,-100.00,ESE,118,4.0,6.0,66,-99.99,,,-99.99,,2013-02-11 18:21:00,
2013-02-11 11:31:00,20.0,11.0,-100.00,ESE,118,4.0,6.0,66,-99.99,,,-99.99,,2013-02-11 18:31:00,
2013-02-11 11:42:00,21.0,11.0,-100.00,ESE,115,3.0,6.0,65,-99.99,,,-99.99,,2013-02-11 18:42:00,
2013-02-11 11:53:00,21.0,11.0,-100.00,ESE,115,3.0,6.0,65,-99.99,,,-99.99,,2013-02-11 18:53:00,
2013-02-11 12:01:00,20.0,9.0,-100.00,East,81,3.0,5.0,62,-99.99,,,-99.99,,2013-02-11 19:01:00,
2013-02-11 12:11:00,22.0,12.0,-100.00,SE,133,2.0,4.0,63,-99.99,,,-99.99,,2013-02-11 19:11:00,
2013-02-11 12:21:00,22.0,12.0,-100.00,SE,133,2.0,4.0,63,-99.99,,,-99.99,,2013-02-11 19:21:00,
2013-02-11 12:31:00,22.0,12.0,-100.00,SE,133,2.0,4.0,63,-99.99,,,-99.99,,2013-02-11 19:31:00,
2013-02-11 12:41:00,22.0,12.0,-100.00,SE,133,2.0,4.0,63,-99.99,,,-99.99,,2013-02-11 19:41:00,
2013-02-11 13:01:00,26.0,13.0,-100.00,ESE,106,3.0,7.0,56,-99.99,,,-99.99,,2013-02-11 20:01:00,
2013-02-11 13:11:00,24.0,12.0,-100.00,SE,127,2.0,5.0,60,-99.99,,,-99.99,,2013-02-11 20:11:00,
2013-02-11 13:21:00,24.0,12.0,-100.00,SE,127,2.0,5.0,60,-99.99,,,-99.99,,2013-02-11 20:21:00,
2013-02-11 13:31:00,24.0,12.0,-100.00,SE,127,2.0,5.0,60,-99.99,,,-99.99,,2013-02-11 20:31:00,
2013-02-11 13:41:00,25.0,12.0,-100.00,WSW,255,7.0,12.0,57,-99.99,,,-99.99,,2013-02-11 20:41:00,
2013-02-11 13:52:00,25.0,12.0,-100.00,WSW,255,7.0,12.0,57,-99.99,,,-99.99,,2013-02-11 20:52:00,
2013-02-11 14:02:00,24.0,12.0,-100.00,WSW,256,8.0,14.0,58,-99.99,,,-99.99,,2013-02-11 21:02:00,
2013-02-11 14:11:00,24.0,13.0,-100.00,WSW,256,9.0,15.0,61,-99.99,,,-99.99,,2013-02-11 21:11:00,
2013-02-11 14:21:00,24.0,13.0,-100.00,WSW,256,9.0,15.0,61,-99.99,,,-99.99,,2013-02-11 21:21:00,
2013-02-11 14:31:00,24.0,13.0,-100.00,WSW,256,9.0,15.0,61,-99.99,,,-99.99,,2013-02-11 21:31:00,
2013-02-11 14:41:00,24.0,13.0,-100.00,WSW,250,11.0,19.0,63,-99.99,,,-99.99,,2013-02-11 21:41:00,
2013-02-11 14:52:00,24.0,13.0,-100.00,WSW,250,11.0,19.0,63,-99.99,,,-99.99,,2013-02-11 21:52:00,
2013-02-11 15:01:00,24.0,13.0,-100.00,WSW,254,11.0,18.0,62,-99.99,,,-99.99,,2013-02-11 22:01:00,
2013-02-11 15:11:00,23.0,12.0,-100.00,WSW,250,11.0,17.0,62,-99.99,,,-99.99,,2013-02-11 22:11:00,
2013-02-11 15:21:00,23.0,12.0,-100.00,WSW,250,11.0,17.0,62,-99.99,,,-99.99,,2013-02-11 22:21:00,
2013-02-11 15:31:00,23.0,12.0,-100.00,WSW,250,11.0,17.0,62,-99.99,,,-99.99,,2013-02-11 22:31:00,
2013-02-11 15:41:00,22.0,12.0,-100.00,WSW,249,12.0,18.0,62,-99.99,,,-99.99,,2013-02-11 22:41:00,
2013-02-11 15:52:00,22.0,12.0,-100.00,WSW,249,12.0,18.0,62,-99.99,,,-99.99,,2013-02-11 22:52:00,
2013-02-11 16:01:00,22.0,11.0,-100.00,WSW,246,11.0,19.0,61,-99.99,,,-99.99,,2013-02-11 23:01:00,
2013-02-11 16:11:00,22.0,11.0,-100.00,WSW,251,11.0,17.0,62,-99.99,,,-99.99,,2013-02-11 23:11:00,
2013-02-11 16:21:00,22.0,11.0,-100.00,WSW,251,11.0,17.0,62,-99.99,,,-99.99,,2013-02-11 23:21:00,
2013-02-11 16:31:00,22.0,11.0,-100.00,WSW,251,11.0,17.0,62,-99.99,,,-99.99,,2013-02-11 23:31:00,
2013-02-11 16:41:00,22.0,11.0,-100.00,WSW,254,10.0,16.0,63,-99.99,,,-99.99,,2013-02-11 23:41:00,
2013-02-11 16:52:00,21.0,10.0,-100.00,WSW,258,9.0,15.0,61,-99.99,,,-99.99,,2013-02-11 23:52:00,
2013-02-11 17:01:00,21.0,10.0,-100.00,WSW,258,9.0,15.0,61,-99.99,,,-99.99,,2013-02-12 00:01:00,
2013-02-11 17:11:00,21.0,9.0,-100.00,WSW,250,9.0,14.0,59,-99.99,,,-99.99,,2013-02-12 00:11:00,
2013-02-11 17:21:00,21.0,9.0,-100.00,WSW,250,9.0,14.0,59,-99.99,,,-99.99,,2013-02-12 00:21:00,
2013-02-11 17:31:00,21.0,9.0,-100.00,WSW,250,9.0,14.0,59,-99.99,,,-99.99,,2013-02-12 00:31:00,
2013-02-11 17:42:00,20.0,10.0,-100.00,West,261,8.0,13.0,64,-99.99,,,-99.99,,2013-02-12 00:42:00,
2013-02-11 17:52:00,20.0,10.0,-100.00,West,261,8.0,13.0,64,-99.99,,,-99.99,,2013-02-12 00:52:00,
2013-02-11 18:01:00,19.0,10.0,-100.00,WSW,240,7.0,11.0,66,-99.99,,,-99.99,,2013-02-12 01:01:00,
2013-02-11 18:11:00,18.0,10.0,-100.00,SW,232,7.0,10.0,69,-99.99,,,-99.99,,2013-02-12 01:11:00,
2013-02-11 18:21:00,18.0,10.0,-100.00,SW,232,7.0,10.0,69,-99.99,,,-99.99,,2013-02-12 01:21:00,
2013-02-11 18:31:00,18.0,10.0,-100.00,SW,232,7.0,10.0,69,-99.99,,,-99.99,,2013-02-12 01:31:00,
2013-02-11 18:41:00,17.0,9.0,-100.00,WSW,257,2.0,6.0,72,-99.99,,,-99.99,,2013-02-12 01:41:00,
2013-02-11 18:52:00,17.0,9.0,-100.00,WSW,257,2.0,6.0,72,-99.99,,,-99.99,,2013-02-12 01:52:00,
2013-02-11 19:01:00,17.0,9.0,-100.00,SW,230,1.0,4.0,72,-99.99,,,-99.99,,2013-02-12 02:01:00,
2013-02-11 19:11:00,14.0,7.0,-100.00,West,270,2.0,6.0,74,-99.99,,,-99.99,,2013-02-12 02:11:00,
2013-02-11 19:21:00,14.0,7.0,-100.00,West,270,2.0,6.0,74,-99.99,,,-99.99,,2013-02-12 02:21:00,
2013-02-11 19:31:00,14.0,7.0,-100.00,West,270,2.0,6.0,74,-99.99,,,-99.99,,2013-02-12 02:31:00,
2013-02-11 19:41:00,11.0,5.0,-100.00,WSW,248,5.0,7.0,74,-99.99,,,-99.99,,2013-02-12 02:41:00,
2013-02-11 19:52:00,11.0,5.0,-100.00,WSW,248,5.0,7.0,74,-99.99,,,-99.99,,2013-02-12 02:52:00,
2013-02-11 20:02:00,11.0,5.0,-100.00,West,269,5.0,8.0,75,-99.99,,,-99.99,,2013-02-12 03:02:00,
2013-02-11 20:11:00,11.0,4.0,-100.00,WSW,258,5.0,8.0,75,-99.99,,,-99.99,,2013-02-12 03:11:00,
2013-02-11 20:21:00,11.0,4.0,-100.00,WSW,258,5.0,8.0,75,-99.99,,,-99.99,,2013-02-12 03:21:00,
2013-02-11 20:31:00,11.0,4.0,-100.00,WSW,258,5.0,8.0,75,-99.99,,,-99.99,,2013-02-12 03:31:00,
2013-02-11 20:41:00,12.0,7.0,-100.00,West,264,5.0,13.0,80,-99.99,,,-99.99,,2013-02-12 03:41:00,
2013-02-11 20:52:00,12.0,7.0,-100.00,West,264,5.0,13.0,80,-99.99,,,-99.99,,2013-02-12 03:52:00,
2013-02-11 21:01:00,13.0,9.0,-100.00,West,262,5.0,10.0,83,-99.99,,,-99.99,,2013-02-12 04:01:00,
2013-02-11 21:11:00,14.0,10.0,-100.00,NW,324,2.0,8.0,84,-99.99,,,-99.99,,2013-02-12 04:11:00,
2013-02-11 21:21:00,14.0,10.0,-100.00,NW,324,2.0,8.0,84,-99.99,,,-99.99,,2013-02-12 04:21:00,
2013-02-11 21:31:00,14.0,10.0,-100.00,NW,324,2.0,8.0,84,-99.99,,,-99.99,,2013-02-12 04:31:00,
2013-02-11 21:41:00,10.0,5.0,-100.00,WSW,243,3.0,4.0,81,-99.99,,,-99.99,,2013-02-12 04:41:00,
2013-02-11 21:52:00,10.0,5.0,-100.00,WSW,243,3.0,4.0,81,-99.99,,,-99.99,,2013-02-12 04:52:00,
2013-02-11 22:01:00,9.0,5.0,-100.00,WSW,241,2.0,4.0,82,-99.99,,,-99.99,,2013-02-12 05:01:00,
2013-02-11 22:11:00,9.0,4.0,-100.00,SW,235,3.0,5.0,81,-99.99,,,-99.99,,2013-02-12 05:11:00,
2013-02-11 22:21:00,9.0,4.0,-100.00,SW,235,3.0,5.0,81,-99.99,,,-99.99,,2013-02-12 05:21:00,
2013-02-11 22:31:00,9.0,4.0,-100.00,SW,235,3.0,5.0,81,-99.99,,,-99.99,,2013-02-12 05:31:00,
2013-02-11 22:41:00,7.0,2.0,-100.00,SW,232,2.0,4.0,79,-99.99,,,-99.99,,2013-02-12 05:41:00,
2013-02-11 22:52:00,7.0,2.0,-100.00,SW,232,2.0,4.0,79,-99.99,,,-99.99,,2013-02-12 05:52:00,
2013-02-11 23:01:00,6.0,1.0,-100.00,WSW,245,3.0,5.0,79,-99.99,,,-99.99,,2013-02-12 06:01:00,
2013-02-11 23:12:00,6.0,1.0,-100.00,WSW,243,3.0,4.0,80,-99.99,,,-99.99,,2013-02-12 06:12:00,
2013-02-11 23:21:00,6.0,1.0,-100.00,WSW,243,3.0,4.0,80,-99.99,,,-99.99,,2013-02-12 06:21:00,
2013-02-11 23:31:00,6.0,1.0,-100.00,WSW,243,3.0,4.0,80,-99.99,,,-99.99,,2013-02-12 06:31:00,
2013-02-11 23:42:00,5.0,1.0,-100.00,WSW,245,3.0,4.0,79,-99.99,,,-99.99,,2013-02-12 06:42:00,
2013-02-11 23:52:00,5.0,1.0,-100.00,WSW,245,3.0,4.0,79,-99.99,,,-99.99,,2013-02-12 06:52:00,